星链-1995 (STARLINK-1995 )

导读 | 星芒AI

STARLINK-1995 是星链(Starlink)卫星互联网项目中的一颗低轨道通信卫星,由SpaceX公司研发并发射。该卫星属于第二代星链卫星群,旨在提供全球范围内的高速互联网服务。它采用先进推进系统和激光通信技术,以提升网络稳定性和数据传输效率。STARLINK-1995 的成功部署有助于增强偏远地区的网络覆盖,推动全球数字连接的普及。

基本信息
目录编号:
47590
目录名称:
STARLINK-1995
国际标识:
2021-009AU
轨道中心:
EARTH
卫星名称:
星链-1995
卫星全名:
星链-1995 (STARLINK-1995 )
卫星状态:
在轨 (已飞行1728 天)
发射日期:
2021-02-04 UTC
国别 :
美国 (US)
星等 :
--
轨道信息
数据来源 国际轨道数据
星历时间: 2025-10-29T13:44:11+0800
13小时前
查看轨道信息
半长轴: 6925.305km
偏心率: 0.000143
轨道倾角: 53.053°
近地点辐角 107.323°
升交点赤经 271.724°
平近点角 252.792°
近地点: 546.179km
远地点: 548.161km
周期: 95.591分钟
每日圈数: 15.064143
详细信息
固有亮度:
5
最大亮度:
2.5
卫星平台:
Starlink V1.0
覆盖范围:
全球
运营商:
太空探索技术公司
运营商所在国:
美国
制造商(研发单位):
太空探索技术公司
制造商所在国:
美国
使用方式:
暂无
卫星简介
星链(Starlink)计划是由太空探索技术公司(SpaceX)提出的一个巨型低轨卫星互联网星座项目,计划在2019年至2024年间在太空搭建由约1.2万颗卫星组成的“星链”网络,其中1584颗将部署在地球上空550千米处的近地轨道,并从2020年开始工作。该卫星仍在工作。
2D轨道图
3D轨道图
轨道高度分析图
轨道倾角分析图
轨道综合分析图
查看轨道综合分析图